Temperature
21 21 21 21 21 21 21 21 21 20 20 19 18 18 18 18 17 17 17 17 18 18 18 18 18 18 18 17 17 17 16 16 17 16 17 17 17 18 18 19 19 19 19
21 21 21 21 21 21 21 21 20 20 19 19 19 18 18 17 17 17 17 18 18 18 18 18 18 18 17 17 17 16 16 16 16 16 16 16 16 18 18 19 19 19 19
20 20 20 20 21 20 20 20 20 20 19 19 18 18 18 18 17 17 18 18 18 18 18 18 18 17 17 17 17 16 16 16 15 15 15 15 15 16 17 18 19 19 19
18 18 19 19 19 20 20 20 20 19 19 18 18 18 18 18 18 17 17 17 17 17 17 17 17 17 17 16 16 16 15 15 15 15 15 15 15 15 16 17 18 18 19
16 17 17 18 18 19 19 20 19 19 18 17 17 17 17 17 17 17 16 17 17 17 17 17 17 17 16 16 15 15 15 14 14 14 14 14 15 15 15 15 17 17 18
16 17 17 17 17 18 18 19 18 18 18 17 16 16 16 16 16 16 16 16 16 16 17 16 16 16 15 15 15 15 14 14 14 14 14 14 14 14 15 15 16 16 17
17 17 17 17 17 16 17 17 17 17 17 17 16 16 15 15 15 15 15 16 16 16 16 16 15 15 15 15 15 14 14 14 14 14 14 14 14 14 14 15 15 15 16
17 17 17 16 16 16 16 16 16 16 16 16 15 15 14 15 15 15 15 16 16 16 15 15 15 14 14 14 14 14 14 14 14 13 14 14 14 14 14 14 14 14 15
17 17 16 16 15 15 15 15 15 15 15 15 15 14 14 14 14 14 15 15 15 15 15 14 14 14 14 14 14 14 14 14 13 13 13 13 13 13 13 13 13 13 13
17 16 16 15 15 14 14 14 14 14 14 14 14 14 13 14 14 14 14 14 14 14 14 14 14 13 13 13 13 14 14 13 13 13 13 13 13 13 13 13 13 13 13
17 16 16 15 14 14 14 14 14 14 14 14 14 13 13 13 13 14 14 14 14 14 13 13 13 13 13 13 13 13 13 13 13 13 13 13 13 13 13 13 13 13 13
16 15 15 14 14 14 14 14 14 13 13 13 13 13 13 13 13 13 14 14 13 13 13 13 13 13 12 12 12 12 12 12 12 12 12 12 12 12 12 12 13 13 13
15 14 14 14 14 14 13 13 13 13 13 13 13 13 13 13 13 13 13 13 13 13 13 13 13 12 12 12 12 11 11 11 12 12 12 12 11 11 11 12 12 12 13
14 13 13 13 13 13 12 12 12 12 13 13 13 13 13 13 13 13 13 12 12 13 13 13 12 12 11 11 11 11 11 11 11 11 11 11 11 11 11 11 12 12 12
13 12 12 12 12 12 11 11 12 12 12 12 12 13 12 12 13 12 12 12 12 12 12 12 12 11 11 11 11 11 11 11 11 11 11 11 11 11 11 11 11 11 12
12 12 12 12 12 11 11 11 12 12 12 12 12 12 12 12 12 12 12 12 12 12 12 12 12 12 11 11 11 11 11 11 11 11 11 11 11 11 11 11 11 11 11
13 12 12 12 12 12 11 11 11 11 12 12 12 12 12 12 12 12 12 11 11 11 12 12 12 11 11 11 11 11 11 11 11 11 11 11 11 11 11 11 11 11 11
13 12 12 12 12 11 11 11 11 11 11 11 12 12 12 11 11 11 11 11 11 11 11 11 11 11 11 11 11 11 11 11 11 11 11 11 11 11 11 11 11 11 11
13 13 12 12 11 11 11 11 11 11 11 11 11 11 11 11 11 11 11 11 11 11 11 11 11 11 11 11 10 10 10 10 10 10 10 10 10 10 11 11 11 11 11
13 13 12 12 11 11 11 11 11 11 11 11 11 11 11 11 11 10 10 10 10 10 10 11 11 11 11 10 10 10 10 10 10 10 10 10 10 10 10 10 11 11 10
14 13 12 12 11 11 10 10 10 10 11 11 11 11 10 10 10 10 10 10 10 10 10 10 10 10 10 10 10 10 10 9 9 10 9 9 9 9 9 10 10 10 10
14 13 12 11 11 11 10 10 10 10 10 10 10 10 10 10 10 10 10 10 10 10 10 10 10 10 9 9 9 9 9 9 9 9 9 9 9 9 9 9 9 9 9
14 13 12 11 11 11 10 10 10 10 10 10 10 9 9 9 9 9 9 9 9 9 9 9 9 9 9 9 9 8 8 8 8 8 8 9 9 9 9 9 9 9 9
14 13 12 11 11 11 11 10 10 10 10 9 9 9 9 9 9 9 9 9 9 9 9 9 9 9 8 8 8 8 8 8 8 8 8 8 8 8 8 8 8 8 8
14 13 12 12 11 11 11 10 10 10 9 9 9 8 8 8 9 9 9 9 9 9 9 9 8 8 8 8 8 8 8 8 8 8 8 8 8 8 8 8 7 7 7
14 13 12 12 12 11 11 10 10 10 9 9 9 8 8 8 9 9 9 9 9 8 8 8 8 8 8 8 8 8 8 8 8 8 8 8 8 7 7 7 7 6 6
Wind_Speed
5 5 5 4 4 6 7 8 10 9 9 7 7 6 6 5 4 4 6 6 5 3 2 1 2 3 4 6 7 6 8 6 5 5 7 8 10 11 12 11 10 11 11
5 4 4 3 3 4 5 6 8 8 8 7 6 4 4 3 2 3 3 4 4 4 2 2 2 3 4 7 7 7 6 5 5 5 5 6 5 6 9 9 10 10 8
4 4 4 2 1 2 3 4 5 6 7 7 4 3 3 2 2 2 1 1 3 3 2 2 2 4 4 6 8 8 9 8 6 7 7 6 5 4 4 4 5 6 6
5 3 3 3 2 0 2 3 3 3 3 5 6 7 5 4 3 2 1 0 1 1 1 2 2 3 4 6 7 8 8 10 8 5 7 9 6 5 5 4 3 3 4
5 4 4 3 3 2 2 5 6 4 3 2 3 4 3 2 3 2 2 1 1 1 1 2 2 3 3 4 5 6 6 6 7 6 4 6 7 8 7 7 5 3 3
5 4 3 2 2 3 1 2 6 6 7 6 4 5 6 6 5 4 3 2 1 0 2 2 2 3 3 4 5 5 6 5 6 6 5 4 4 4 6 9 7 5 3
5 5 4 3 3 3 2 2 4 5 6 7 7 6 6 6 6 5 4 2 1 0 2 2 3 3 4 5 5 5 6 6 5 4 3 3 4 4 4 5 4 3 3
6 6 6 5 5 5 5 4 5 5 5 6 5 6 6 5 4 4 3 2 1 0 2 3 3 4 4 5 5 5 5 5 4 3 2 1 2 1 1 1 1 2 2
8 8 7 7 7 7 7 6 6 5 5 6 7 7 6 6 5 4 3 2 1 1 3 3 4 4 4 5 5 4 5 5 3 3 3 3 3 4 3 3 2 1 2
9 8 7 7 7 7 6 6 5 6 5 6 7 6 6 5 5 4 3 3 2 2 3 4 4 4 4 4 4 3 4 4 3 3 3 3 3 3 3 3 3 1 1
10 8 7 7 6 6 5 4 3 3 4 5 6 7 6 5 5 4 4 3 3 4 4 4 4 4 4 4 4 4 4 4 4 5 4 5 4 4 4 3 3 2 2
8 7 7 6 5 3 2 2 1 2 2 3 4 6 6 5 5 5 4 4 5 6 6 5 5 5 5 5 5 5 5 5 6 6 6 6 5 6 4 4 3 2 2
7 5 4 3 2 0 1 1 1 1 0 3 5 6 6 5 5 5 5 6 7 7 7 7 6 6 6 6 6 6 7 7 7 7 7 6 5 5 4 4 4 4 3
6 4 2 0 2 2 2 1 2 1 0 2 5 6 6 5 5 5 6 6 6 7 6 6 6 5 6 7 7 7 7 7 7 7 7 6 5 5 5 4 5 5 5
5 4 3 3 3 2 1 2 2 1 1 2 3 3 4 4 5 5 6 7 7 6 6 6 6 6 6 6 6 7 7 7 7 8 7 7 8 7 5 3 4 5 5
5 4 5 5 5 5 4 3 2 1 1 2 1 2 3 4 5 5 6 7 7 6 6 6 5 7 6 9 11 9 9 9 9 8 8 8 10 10 10 9 8 7 5
7 6 6 7 7 7 6 5 3 1 2 3 3 4 4 5 5 6 7 7 6 5 5 4 5 6 7 12 13 13 9 9 8 8 8 8 10 11 9 9 10 10 10
8 7 6 6 5 5 4 3 2 2 3 3 4 4 5 6 6 7 7 6 4 4 4 4 5 6 7 11 13 12 9 8 8 8 8 8 10 11 9 8 10 11 11
8 7 7 6 5 5 4 3 3 3 3 4 4 5 6 6 6 6 5 4 5 5 4 4 6 7 6 7 9 8 7 7 8 8 9 9 9 13 12 11 10 10 10
7 7 6 5 5 5 4 5 5 4 5 4 4 5 5 6 6 5 4 4 5 7 7 8 7 8 7 8 8 7 6 6 5 6 8 11 11 12 12 9 8 9 7
8 8 7 6 6 5 6 6 6 6 5 4 5 5 5 5 5 5 4 6 8 8 8 9 8 8 9 11 12 10 6 5 5 5 5 6 11 11 11 8 6 5 4
8 8 8 7 6 6 7 7 6 5 5 6 6 5 5 4 5 6 5 7 8 9 8 9 8 6 6 8 11 12 10 6 5 4 3 4 8 9 10 8 9 11 8
9 9 9 8 6 6 7 8 6 5 6 6 6 5 5 4 4 6 7 7 7 7 7 7 7 4 4 5 9 11 11 9 4 3 5 6 8 7 7 10 11 9 7
10 9 9 8 8 8 8 7 6 7 7 7 6 5 5 4 4 4 6 7 8 7 7 7 6 4 3 3 3 4 5 6 5 3 5 7 10 9 8 7 7 7 6
10 10 11 11 11 9 9 8 8 9 8 8 7 5 5 5 4 4 3 5 5 7 9 7 6 6 4 3 5 4 3 3 3 2 3 5 5 6 6 5 6 6 6
11 11 12 12 11 10 10 9 10 11 10 8 8 6 5 5 5 6 5 7 4 9 10 10 8 4 5 7 6 5 4 3 3 3 4 4 4 4 4 4 4 4 5
Wind_Direction
309 342 326 288 239 218 212 207 202 202 191 186 187 187 192 192 197 193 185 177 165 147 144 218 295 291 276 278 280 279 275 264 253 269 277 269 262 262 265 261 256 252 241
340 344 335 314 263 234 220 215 210 204 199 197 188 178 167 165 166 151 142 134 109 80 59 9 321 306 294 289 280 269 268 259 228 240 270 286 289 263 256 256 252 250 239
325 337 338 330 290 233 217 205 206 207 206 195 172 145 126 116 134 148 138 73 72 65 42 353 323 308 294 290 286 276 269 272 258 231 243 262 265 298 297 280 272 260 242
343 343 351 349 353 71 130 139 147 182 208 195 183 176 179 184 188 172 175 74 38 27 12 350 337 320 308 298 295 287 276 276 277 261 237 243 257 263 294 301 297 287 258
351 350 356 353 348 360 115 134 137 150 146 190 193 173 159 159 142 144 166 192 267 298 5 14 7 354 339 329 322 313 298 283 280 273 256 252 251 242 250 276 291 301 282
339 340 345 1 349 342 342 150 158 165 160 161 175 178 170 161 159 171 183 202 227 293 21 20 8 352 346 341 333 320 311 299 286 276 254 244 246 241 240 249 262 276 290
306 309 317 323 314 304 285 243 193 180 175 167 167 174 166 163 170 172 179 176 155 41 5 6 349 342 338 337 336 326 321 312 304 297 284 266 255 247 238 242 258 264 285
267 269 271 277 282 278 271 250 222 205 187 175 162 149 148 153 158 164 165 158 143 355 350 350 341 334 337 340 339 332 332 325 318 326 344 355 340 327 298 277 279 296 300
263 266 268 267 268 272 270 260 236 218 198 176 155 149 159 161 155 157 148 124 78 32 18 10 2 354 348 344 341 339 343 346 1 12 28 39 26 32 23 14 14 341 315
266 269 268 263 261 261 266 266 248 221 196 176 163 161 171 165 153 142 113 81 60 52 39 29 17 4 351 345 345 339 344 359 11 27 50 49 36 34 27 14 357 329 267
273 277 279 274 264 259 254 247 238 222 193 178 167 161 161 154 141 122 95 72 54 48 46 32 20 5 350 345 349 347 352 18 33 36 40 33 25 23 18 17 4 344 308
275 279 283 284 274 262 261 264 234 222 206 169 155 153 149 141 127 107 87 69 65 60 56 48 39 23 9 3 3 0 16 38 44 39 38 32 36 38 25 24 16 353 320
288 290 290 292 291 105 74 5 303 253 171 143 146 150 150 140 127 112 95 85 78 68 59 54 42 25 14 14 22 39 50 53 50 42 36 22 24 28 19 20 14 356 339
281 268 255 188 87 79 63 342 314 333 70 151 159 164 163 152 137 119 105 97 88 78 66 56 44 30 27 32 43 55 58 55 47 38 30 18 12 5 2 9 6 357 357
268 228 183 162 133 118 120 278 285 326 69 124 164 175 164 145 130 117 109 102 91 84 75 63 48 37 37 39 59 63 60 53 44 33 28 28 33 28 23 16 4 4 9
243 214 186 174 176 181 200 221 242 294 81 100 110 134 137 132 123 116 115 108 98 89 78 64 59 50 46 64 73 78 69 57 46 31 19 26 31 23 29 33 36 32 22
229 214 205 198 196 196 196 203 211 178 93 92 95 106 115 110 104 111 114 114 108 100 89 73 72 68 62 82 84 81 78 63 46 34 26 29 20 18 16 21 34 36 34
222 215 206 199 197 194 197 205 201 175 134 115 115 118 117 111 109 112 116 116 114 109 94 78 83 84 80 102 99 91 81 69 52 41 34 34 25 17 11 29 38 38 34
210 206 198 190 188 197 200 197 205 192 166 152 143 138 132 126 122 122 125 126 123 107 90 78 80 87 77 96 106 95 83 71 55 42 38 38 35 16 26 39 37 35 29
193 189 180 173 187 206 188 189 201 193 189 177 160 147 142 139 136 133 125 118 119 111 102 83 72 79 73 72 85 99 91 77 58 40 32 31 30 26 34 41 38 31 9
187 176 170 181 201 197 180 192 197 202 192 156 140 136 138 142 139 129 121 125 120 112 104 93 78 73 77 73 76 84 90 92 71 49 27 14 16 32 38 43 40 13 354
182 172 173 193 205 191 182 192 203 194 155 141 137 133 134 141 138 129 124 128 127 120 114 104 91 74 72 76 76 75 76 80 73 46 7 357 19 41 41 38 30 29 31
188 179 178 187 198 192 186 194 199 164 149 144 144 138 126 117 131 139 139 136 135 133 130 123 117 105 89 83 79 74 66 59 56 19 13 28 37 49 49 40 40 41 43
192 182 175 184 200 199 197 199 177 161 153 155 153 145 136 126 125 139 151 153 155 148 145 143 138 131 116 97 85 73 59 43 33 16 17 39 48 53 47 41 40 44 47
192 184 187 193 202 197 197 190 174 164 162 161 157 151 149 143 132 120 135 162 166 168 162 163 158 150 140 124 105 88 53 25 5 15 46 52 54 56 53 50 44 42 43
190 190 196 200 202 196 197 188 179 173 166 165 164 160 154 147 140 129 99 65 120 150 157 161 156 151 145 131 101 72 40 17 43 84 81 78 76 75 68 60 49 41 37
Height
1502 1505 1507 1509 1510 1511 1513 1514 1515 1516 1517 1517 1517 1519 1520 1522 1524 1524 1525 1526 1527 1528 1528 1529 1529 1529 1528 1526 1526 1524 1522 1521 1521 1519 1516 1515 1515 1514 1513 1512 1512 1512 1513
1503 1504 1505 1506 1508 1509 1510 1512 1513 1514 1515 1515 1515 1516 1517 1518 1519 1520 1521 1522 1523 1524 1524 1524 1524 1524 1522 1520 1519 1518 1516 1514 1515 1514 1511 1508 1507 1506 1506 1505 1505 1506 1507
1500 1500 1501 1502 1504 1505 1507 1508 1510 1511 1512 1513 1513 1513 1513 1514 1514 1516 1516 1518 1518 1519 1519 1519 1519 1518 1516 1514 1513 1512 1509 1507 1507 1508 1508 1505 1501 1500 1500 1500 1500 1500 1500
1499 1498 1498 1498 1499 1500 1501 1503 1504 1506 1507 1508 1508 1507 1507 1508 1509 1511 1512 1513 1513 1514 1514 1514 1513 1513 1511 1509 1507 1506 1504 1502 1500 1500 1501 1501 1499 1499 1496 1496 1497 1496 1496
1498 1497 1496 1496 1496 1496 1497 1497 1498 1499 1500 1501 1501 1501 1502 1503 1505 1507 1508 1508 1509 1509 1510 1510 1509 1508 1507 1505 1503 1501 1500 1498 1496 1495 1495 1494 1494 1494 1494 1492 1492 1492 1492
1498 1497 1496 1495 1494 1494 1494 1494 1494 1494 1493 1493 1493 1495 1497 1499 1501 1503 1504 1505 1505 1505 1505 1506 1505 1505 1503 1502 1500 1498 1496 1494 1492 1491 1490 1490 1489 1489 1489 1489 1488 1488 1488
1499 1497 1496 1494 1493 1492 1491 1491 1490 1490 1489 1489 1490 1492 1493 1496 1498 1500 1500 1501 1501 1501 1501 1502 1502 1501 1500 1499 1498 1496 1493 1491 1490 1488 1487 1486 1486 1486 1486 1485 1484 1484 1483
1498 1496 1495 1493 1492 1491 1490 1489 1487 1487 1486 1487 1487 1488 1491 1494 1496 1497 1497 1497 1497 1497 1498 1498 1498 1498 1498 1497 1496 1494 1491 1489 1487 1486 1485 1485 1484 1484 1483 1483 1482 1481 1480
1496 1494 1493 1491 1490 1488 1487 1486 1485 1485 1484 1485 1485 1486 1489 1491 1492 1494 1494 1494 1494 1495 1495 1496 1496 1496 1495 1494 1494 1492 1490 1488 1486 1485 1484 1484 1483 1482 1482 1481 1480 1480 1478
1493 1492 1490 1489 1487 1486 1484 1483 1483 1482 1482 1482 1483 1485 1487 1488 1490 1491 1492 1492 1492 1493 1494 1494 1494 1493 1493 1492 1491 1490 1488 1487 1486 1485 1484 1484 1482 1482 1480 1480 1479 1478 1478
1489 1488 1487 1485 1484 1483 1482 1480 1480 1479 1479 1479 1481 1483 1484 1486 1488 1489 1490 1491 1491 1492 1493 1493 1493 1493 1492 1491 1490 1488 1488 1487 1486 1485 1484 1483 1482 1481 1480 1479 1478 1477 1476
1485 1484 1482 1481 1481 1480 1479 1478 1477 1477 1477 1477 1479 1481 1483 1484 1487 1488 1489 1490 1490 1491 1492 1492 1492 1492 1491 1490 1489 1488 1487 1486 1486 1485 1484 1483 1481 1480 1479 1478 1477 1475 1474
1480 1479 1478 1478 1477 1478 1477 1477 1476 1476 1477 1477 1478 1480 1482 1484 1485 1487 1488 1489 1490 1490 1491 1491 1491 1491 1490 1489 1489 1488 1488 1487 1486 1485 1484 1483 1481 1480 1479 1477 1476 1475 1473
1476 1475 1475 1475 1475 1475 1476 1475 1476 1476 1477 1478 1479 1480 1481 1483 1485 1486 1487 1489 1490 1491 1491 1491 1491 1491 1491 1490 1490 1489 1489 1488 1487 1486 1485 1483 1482 1481 1480 1478 1476 1474 1472
1473 1473 1472 1473 1473 1474 1475 1475 1476 1476 1477 1477 1478 1479 1481 1482 1484 1486 1487 1489 1490 1491 1492 1492 1493 1493 1492 1492 1491 1491 1490 1490 1489 1487 1486 1485 1484 1483 1481 1480 1477 1475 1472
1471 1471 1471 1471 1472 1473 1474 1475 1476 1476 1476 1477 1477 1478 1480 1482 1484 1486 1488 1490 1491 1492 1493 1494 1494 1494 1494 1494 1493 1493 1492 1492 1491 1490 1488 1487 1486 1485 1483 1481 1479 1476 1474
1469 1469 1470 1470 1471 1472 1473 1474 1475 1476 1476 1476 1477 1478 1479 1481 1483 1485 1487 1490 1491 1493 1494 1495 1496 1496 1496 1496 1496 1495 1495 1495 1494 1493 1492 1490 1489 1487 1485 1483 1481 1479 1476
1466 1467 1468 1469 1470 1471 1473 1474 1474 1475 1476 1476 1477 1478 1479 1481 1483 1485 1487 1489 1491 1493 1494 1495 1496 1497 1497 1498 1498 1498 1498 1497 1496 1495 1494 1493 1491 1489 1487 1485 1483 1481 1479
1463 1465 1466 1467 1469 1470 1471 1472 1473 1474 1475 1476 1477 1478 1479 1481 1482 1484 1486 1488 1490 1492 1494 1495 1496 1497 1498 1498 1499 1499 1499 1499 1498 1497 1496 1494 1493 1491 1489 1487 1485 1483 1482
1460 1462 1464 1465 1467 1468 1469 1469 1470 1471 1473 1475 1476 1478 1479 1480 1482 1483 1485 1487 1489 1491 1493 1495 1496 1497 1498 1499 1499 1500 1500 1499 1499 1498 1497 1495 1494 1492 1491 1489 1487 1485 1484
1457 1458 1461 1462 1464 1465 1466 1466 1467 1469 1472 1473 1475 1477 1478 1480 1481 1483 1484 1486 1488 1490 1492 1494 1495 1496 1498 1499 1499 1499 1499 1499 1499 1498 1497 1496 1494 1493 1492 1490 1488 1487 1485
1453 1455 1457 1459 1461 1462 1463 1464 1465 1467 1469 1471 1473 1475 1477 1479 1480 1482 1484 1485 1487 1490 1491 1493 1495 1496 1497 1498 1499 1499 1499 1499 1498 1497 1496 1495 1494 1493 1492 1490 1489 1487 1486
1450 1452 1454 1456 1458 1459 1461 1462 1464 1466 1467 1469 1471 1473 1475 1477 1479 1481 1482 1484 1486 1488 1490 1492 1494 1495 1497 1497 1498 1498 1498 1498 1497 1496 1495 1494 1494 1492 1491 1490 1489 1487 1486
1446 1448 1450 1452 1454 1456 1458 1460 1462 1464 1465 1467 1469 1471 1473 1475 1477 1479 1481 1483 1485 1487 1489 1491 1493 1494 1496 1497 1497 1497 1497 1496 1495 1495 1494 1494 1493 1492 1491 1490 1489 1487 1486
1441 1444 1446 1448 1450 1453 1455 1457 1459 1461 1463 1464 1466 1468 1471 1473 1475 1477 1479 1481 1484 1486 1488 1490 1492 1494 1495 1496 1496 1496 1495 1495 1494 1494 1494 1494 1493 1493 1492 1490 1489 1488 1486
1436 1439 1441 1443 1446 1449 1451 1453 1455 1457 1459 1460 1462 1465 1467 1470 1472 1474 1477 1479 1482 1484 1487 1489 1491 1492 1494 1494 1494 1495 1494 1494 1494 1494 1494 1494 1494 1493 1492 1491 1489 1488 1486